This is the latest recevied weather packets stored in our database for station/object KC5DAQ-26. If no packets are shown the sender has not sent any weather packets the latest 10 day(s).
| Time | Temp. | Humidity | Pressure | Rain* | Wind** | Luminosity | Snow |
|---|---|---|---|---|---|---|---|
| 1787775903 | 36.67° C | 53% | 1016.9 hPa | 0 mm | - | 788 W/m² | - |
| 1787775842 | 36.67° C | 52% | 1017 hPa | 0 mm | - | 788 W/m² | - |
| 1787775784 | 36.67° C | 53% | 1017 hPa | 0 mm | - | 793 W/m² | - |
| 1787775723 | 36.67° C | 52% | 1017.1 hPa | 0 mm | - | 798 W/m² | - |
| 1787775663 | 36.67° C | 52% | 1017 hPa | 0 mm | - | 798 W/m² | - |
| 1787775603 | 36.67° C | 52% | 1017.1 hPa | 0 mm | - | 798 W/m² | - |
| 1787775543 | 36.67° C | 52% | 1017.1 hPa | 0 mm | - | 802 W/m² | - |
| 1787775483 | 36.67° C | 53% | 1017.1 hPa | 0 mm | - | 805 W/m² | - |
| 1787775422 | 36.67° C | 51% | 1017.1 hPa | 0 mm | - | 805 W/m² | - |
| 1787775364 | 36.67° C | 50% | 1017.2 hPa | 0 mm | - | 802 W/m² | - |
| 1787775303 | 36.67° C | 50% | 1017.2 hPa | 0 mm | - | 807 W/m² | - |
| 1787775242 | 36.67° C | 52% | 1017.2 hPa | 0 mm | - | 811 W/m² | - |
| 1787775183 | 36.67° C | 55% | 1017.3 hPa | 0 mm | - | 816 W/m² | - |
| 1787775122 | 36.67° C | 52% | 1017.1 hPa | 0 mm | - | 821 W/m² | - |
| 1787775064 | 36.67° C | 53% | 1017.2 hPa | 0 mm | - | 821 W/m² | - |
| 1787775002 | 36.67° C | 53% | 1017.2 hPa | 0 mm | - | 821 W/m² | - |
| 1787774948 | 36.67° C | 53% | 1017.3 hPa | 0 mm | - | 823 W/m² | - |
| 1787774883 | 36.67° C | 54% | 1017.3 hPa | 0 mm | - | 828 W/m² | - |
| 1787774821 | 36.67° C | 55% | 1017.3 hPa | 0 mm | - | 832 W/m² | - |
| 1787774761 | 36.67° C | 54% | 1017.3 hPa | 0 mm | - | 835 W/m² | - |
| 1787774699 | 36.67° C | 53% | 1017.4 hPa | 0 mm | - | 837 W/m² | - |
| 1787774637 | 36.67° C | 54% | 1017.4 hPa | 0 mm | - | 837 W/m² | - |
| 1787774576 | 36.67° C | 56% | 1017.5 hPa | 0 mm | - | 839 W/m² | - |
| 1787774514 | 36.67° C | 55% | 1017.4 hPa | 0 mm | - | 846 W/m² | - |
| 1787774455 | 36.67° C | 55% | 1017.4 hPa | 0 mm | - | 849 W/m² | - |
* Rain latest hour (hover to see other rain measurements)
** Current wind speed in m/s (hover to see current wind gust speed)